Weather History for Annette Island, AK

Change the Weather History Date:

Thursday, November 22, 2012

  Actual Average Record
Temperature  
Mean Temperature 42 °F 39 °F  
Max Temperature 45 °F 44 °F 57 °F (1949)
Min Temperature 39 °F 34 °F 11 °F (1996)
Degree Days  
Heating Degree Days 23 26  
Month to date heating degree days 518 537  
Since 1 July heating degree days 1946 1837  
Cooling Degree Days 0    
Month to date cooling degree days 0  
Year to date cooling degree days 7  
Moisture  
Dew Point 36 °F    
Average Humidity 0    
Maximum Humidity 0    
Minimum Humidity 0    
Precipitation  
Precipitation 0.48 in 0.38 in 2.62 in (1957)
Month to date precipitation 9.85 9.23  
Year to date precipitation 92.47 87.85  
Snow  
Snow 0.00 in 0.20 in 3.10 in (1963)
Month to date snowfall 0.0 2.2  
Since 1 July snowfall T 2.3  
Since 1 September snowfall 0.0 2.3  
Snow Depth 0.00 in    
Sea Level Pressure  
Sea Level Pressure 29.57 in    
Wind  
Wind Speed 18 mph (ESE)    
Max Wind Speed 26 mph    
Max Gust Speed 49 mph    
Visibility 7 miles    
Events Rain    
T = Trace of Precipitation, MM = Missing Value Source: NWS Daily Summary

Daily Weather History Graph

Daily Weather History Graph

Search for Another Location

Airport:

Trip Planner

Search our weather history database for the weather conditions in past years. The results will help you decide how hot, cold, wet, or windy it might be!

Date:

Astronomy

Nov. 22, 2012 Rise Set
Actual Time 7:33 AM AKST 3:31 PM AKST
Civil Twilight 6:50 AM AKST 4:13 PM AKST
Nautical Twilight 6:05 AM AKST 4:59 PM AKST
Astronomical Twilight 5:21 AM AKST 5:42 PM AKST
Moon 1:05 PM AKST (11/22) 1:09 AM AKST (11/22)
Length of Visible Light 9h 23m
Length of Day
7h 58m
Waxing Gibbous, 72% of the Moon is Illuminated
Nov 22
Waxing Gibbous
Nov 28
Full
Dec 6
Last Quarter
Dec 12
New
Dec 19
First Quarter

Hourly Weather History & Observations

Time (AKST) Temp. Windchill Dew Point Humidity Pressure Visibility Wind Dir Wind Speed Gust Speed Precip Events Conditions
12:53 AM 42.1 °F 35.2 °F 30.9 °F 65% 29.91 in 10.0 mi ESE 12.7 mph 23.0 mph N/A   Partly Cloudy
1:53 AM 43.0 °F 35.4 °F 30.0 °F 60% 29.88 in 10.0 mi ESE 16.1 mph 24.2 mph 0.00 in   Overcast
3:53 AM 44.1 °F 36.2 °F 28.0 °F 53% 29.82 in 10.0 mi ESE 18.4 mph 29.9 mph N/A   Overcast
4:53 AM 44.1 °F 35.9 °F 28.9 °F 55% 29.78 in 10.0 mi ESE 19.6 mph 38.0 mph 0.00 in Rain Light Rain
5:53 AM 42.1 °F 33.3 °F 30.9 °F 65% 29.74 in 10.0 mi ESE 19.6 mph 34.5 mph 0.00 in Rain Light Rain
6:41 AM 42.8 °F 34.0 °F 32.0 °F 66% 29.69 in 10.0 mi East 20.7 mph 35.7 mph 0.00 in Rain Light Rain
6:53 AM 41.0 °F 31.9 °F 33.1 °F 73% 29.69 in 10.0 mi East 19.6 mph 32.2 mph 0.00 in Rain Light Rain
7:53 AM 41.0 °F 32.2 °F 33.1 °F 73% 29.65 in 10.0 mi ESE 18.4 mph 39.1 mph 0.01 in Rain Light Rain
8:53 AM 39.9 °F 30.2 °F 34.0 °F 79% 29.60 in 7.0 mi ESE 20.7 mph 33.4 mph 0.03 in Rain Light Rain
9:53 AM 39.9 °F 30.5 °F 35.1 °F 83% 29.57 in 4.0 mi ESE 19.6 mph 38.0 mph 0.06 in Rain Rain
10:46 AM 39.2 °F 29.3 °F 35.6 °F 87% 29.52 in 2.5 mi ESE 20.7 mph 38.0 mph 0.14 in Rain Rain
10:53 AM 39.9 °F 30.5 °F 36.0 °F 86% 29.53 in 3.0 mi ESE 19.6 mph 35.7 mph 0.16 in Rain Rain
11:53 AM 41.0 °F 31.4 °F 36.0 °F 82% 29.51 in 7.0 mi ESE 21.9 mph 34.5 mph 0.06 in Rain Light Rain
12:53 PM 42.1 °F 32.8 °F 37.0 °F 82% 29.49 in 4.0 mi ESE 21.9 mph 48.3 mph 0.06 in Rain Light Rain
1:28 PM 41.0 °F 31.1 °F 37.4 °F 87% 29.48 in 2.5 mi ESE 23.0 mph 40.3 mph 0.06 in Rain Rain
1:53 PM 41.0 °F 32.5 °F 37.9 °F 89% 29.49 in 2.5 mi ESE 17.3 mph 28.8 mph 0.10 in Rain Light Rain
2:22 PM 42.8 °F 34.0 °F 39.2 °F 87% 29.47 in 3.0 mi ESE 20.7 mph 36.8 mph 0.02 in Rain Light Rain
2:53 PM 42.1 °F 33.1 °F 39.0 °F 89% 29.47 in 4.0 mi ESE 20.7 mph 31.1 mph 0.04 in Rain Light Rain
3:35 PM 42.8 °F 34.0 °F 39.2 °F 87% 29.44 in 2.5 mi ESE 20.7 mph 31.1 mph 0.03 in Rain Light Rain
3:44 PM 42.8 °F 34.8 °F 39.2 °F 87% 29.43 in 3.0 mi ESE 17.3 mph 36.8 mph 0.05 in Rain Rain
3:53 PM 42.1 °F 33.9 °F 39.0 °F 89% 29.44 in 4.0 mi ESE 17.3 mph 33.4 mph 0.08 in Rain Light Rain
4:53 PM 42.1 °F 34.5 °F 39.0 °F 89% 29.40 in 7.0 mi ESE 15.0 mph 26.5 mph 0.08 in Rain Light Rain
5:53 PM 42.1 °F 33.3 °F 39.0 °F 89% 29.40 in 8.0 mi ESE 19.6 mph 32.2 mph 0.04 in Rain Rain
6:53 PM 42.1 °F 31.9 °F 39.0 °F 89% 29.42 in 7.0 mi SE 26.5 mph 38.0 mph 0.13 in Rain Light Rain
7:53 PM 44.1 °F 35.7 °F 41.0 °F 89% 29.47 in 10.0 mi SE 20.7 mph 32.2 mph 0.02 in   Overcast
8:53 PM 46.0 °F 39.6 °F 39.9 °F 79% 29.50 in 10.0 mi SSE 15.0 mph 25.3 mph N/A   Overcast
9:53 PM 45.0 °F 39.7 °F 37.0 °F 74% 29.52 in 10.0 mi SSE 10.4 mph 17.3 mph 0.00 in   Mostly Cloudy
10:53 PM 45.0 °F 38.2 °F 37.9 °F 76% 29.54 in 10.0 mi SSE 15.0 mph 25.3 mph N/A   Partly Cloudy
11:53 PM 44.1 °F 36.8 °F 37.9 °F 79% 29.55 in 10.0 mi SE 16.1 mph 24.2 mph N/A   Mostly Cloudy